Regional Weather Roundup
Issued by NWS

Home | Current Version | Previous Version | Graphics & Text | Print | Product List | Glossary On
Versions: 1 2 3 4 5 6 7 8 9 10 11 12 13 14 15 16 17 18 19 20 21 22 23 24 25 26 27 28 29 30 31 32 33 34 35 36 37 38 39 40 41 42 43 44 45 46 47 48 49
000
ASUS43 KDMX 300007
RWRIA

WEATHER ROUNDUP FOR IOWA
NATIONAL WEATHER SERVICE DES MOINES IA
700 PM CDT SAT AUG 29 2015

NOTE: "FAIR" INDICATES FEW OR NO CLOUDS BELOW 12,000 FEET WITH NO
SIGNIFICANT WEATHER AND/OR OBSTRUCTIONS TO VISIBILITY.

* - THESE STATIONS ARE NOT NWS STATIONS...THUS NOT UNDER NWS
QUALITY CONTROL.  THEY ALSO DO NOT REPORT WEATHER SUCH
AS PRECIPITATION OR FOG.

IAZ001>003-012>014-020>022-031>034-043>046-300100-
   NORTHWEST IOWA

CITY           SKY/WX    TMP DP  RH WIND       PRES   REMARKS
CARROLL *      CLOUDY    66  63  88 CALM      30.04F
CHEROKEE *     MOSUNNY   69  66  90 S3        30.04S
DENISON *      CLOUDY    66  63  88 CALM      30.03S
LE MARS *      SUNNY     70  64  83 S5        30.04S
ORANGE CITY *  SUNNY     70  66  88 S3        30.04S
SHELDON *      SUNNY     70  64  83 S6        30.02F
SPENCER        MOSUNNY   70  64  81 S6        30.04S HAZE
6HR MIN TEMP:  67; 6HR MAX TEMP:  73;

STORM LAKE *   SUNNY     66  64  94 SE5       30.05S
$$

IAZ055>058-069>071-079>083-090>094-300100-
   SOUTHWEST IOWA

CITY           SKY/WX    TMP DP  RH WIND       PRES   REMARKS
ATLANTIC *     CLOUDY    68  64  88 CALM      30.04S
AUDUBON *      CLOUDY    66  61  82 CALM      30.06S
CLARINDA *     CLOUDY    72  66  83 CALM      30.05S
COUNCIL BLFS * CLOUDY    70  64  83 E5        30.04S
CRESTON *      CLOUDY    68  64  88 NE7       30.05S
HARLAN  *      PTSUNNY   66 N/A N/A CALM      30.08S
LAMONI         MOCLDY    73  66  78 N5        30.03R
6HR MIN TEMP:  73; 6HR MAX TEMP:  78;

RED OAK *      CLOUDY    70  66  88 NE3       30.04S
SHENANDOAH *   CLOUDY    70  64  83 CALM      30.04S
$$

IAZ047>049-059>061-072>074-084-300100-
   CENTRAL IOWA

CITY           SKY/WX    TMP DP  RH WIND       PRES   REMARKS
AMES           CLOUDY    70  65  84 CALM      30.03F
6HR MIN TEMP:  69; 6HR MAX TEMP:  72;

ANKENY *       CLOUDY    70  66  88 CALM      30.03S
CHARITON *     CLOUDY    70  66  88 CALM      30.03S
DES MOINES     CLOUDY    71  64  78 N6        30.02S
6HR MIN TEMP:  71; 6HR MAX TEMP:  73;

GRINNELL*      CLOUDY    68  64  88 N3        30.05R
KNOXVILLE *    CLOUDY    72  66  83 NW5       30.01S
MARSHALLTOWN   CLOUDY    70  65  84 CALM      30.03S
6HR MIN TEMP:  69; 6HR MAX TEMP:  71;

PELLA *        CLOUDY    71  68  92 NE3       30.03S
PERRY *        CLOUDY    68  64  88 CALM      30.04F
$$

IAZ004>006-015-016-023>025-035-036-300100-
   NORTH CENTRAL IOWA

CITY           SKY/WX    TMP DP  RH WIND       PRES   REMARKS
ALGONA *       MOCLDY    66  63  88 CALM      30.05S
CLARION *      CLEAR     70  66  88 CALM      30.04F
ESTHERVILLE    PTCLDY    66  63  90 SE5       30.04S
6HR MIN TEMP:  64; 6HR MAX TEMP:  70;

FORT DODGE *   MOCLDY    66  61  82 W5        30.05S
MASON CITY     MOCLDY    71  66  84 CALM      30.05F
6HR MIN TEMP:  69; 6HR MAX TEMP:  74;

FOREST CITY *  CLEAR     70  63  78 CALM      30.04S
IOWA FALLS *     N/A     70  64  83 CALM      30.06R
$$

IAZ007>011-017>019-026>030-037>042-050>054-066-300100-
   NORTHEAST IOWA

CITY           SKY/WX    TMP DP  RH WIND       PRES   REMARKS
CEDAR RAPIDS   MOCLDY    72  68  87 NE6       30.00F
6HR MIN TEMP:  72; 6HR MAX TEMP:  75;

CHARLES CITY * CLEAR     70  68  94 CALM      30.04S
CLINTON *      CLOUDY    70  66  88 NE3       30.03S
DECORAH *      CLOUDY    70  63  78 CALM      30.04S
DUBUQUE        CLOUDY    70  65  84 NE6       30.03S
6HR MIN TEMP:  70; 6HR MAX TEMP:  73;

MONTICELLO *   CLOUDY    72  66  83 CALM      30.01F
OELWEIN *        N/A    N/A N/A N/A E5        30.05S
WATERLOO       CLOUDY    71  63  75 SE6       30.02S
6HR MIN TEMP:  70; 6HR MAX TEMP:  73;

$$

IAZ064-065-067-068-078-300100-
   EAST CENTRAL IOWA

CITY           SKY/WX    TMP DP  RH WIND       PRES   REMARKS
DAVENPORT      CLOUDY    70  67  90 NE3       30.02R
6HR MIN TEMP:  70; 6HR MAX TEMP:  74;

IOWA CITY      CLOUDY    74  67  78 NE6       30.01F
6HR MIN TEMP:  74; 6HR MAX TEMP:  77;

MT. PLEASANT * MOCLDY    76  66  72 N6        30.00S
MUSCATINE *    CLOUDY    73  68  83 N6        30.01S
QUAD CITIES    CLOUDY    72  67  84 NE5       30.00S
6HR MIN TEMP:  72; 6HR MAX TEMP:  76; 6HR PCP: TRACE;

$$

IAZ062-063-075>077-085>089-095>099-300100-
   SOUTHEAST IOWA

CITY           SKY/WX    TMP DP  RH WIND       PRES   REMARKS
BURLINGTON     MOCLDY    77  70  79 CALM      29.99S
6HR MIN TEMP:  76; 6HR MAX TEMP:  78;

FAIRFIELD *    MOCLDY    73  68  83 N5        30.01S
FORT MADISON * PTCLDY    75  70  83 CALM      30.00S
KEOKUK *       PTCLDY    77  70  78 NW5       29.98S
OSKALOOSA *    CLOUDY    70  66  87 NE3       30.02S
CENTERVILLE *  CLEAR     70  66  88 N5        30.03S
OTTUMWA        CLOUDY    72  69  90 W3        30.00S
6HR MIN TEMP:  72; 6HR MAX TEMP:  75;

WASHINGTON *     N/A    N/A N/A N/A MISG        N/A
$$

ABBREVIATIONS USED IN REMARKS
   TC - TEMPERATURES IN CELSIUS
  WCI - WIND CHILL INDEX
   HX - HEAT INDEX
  VSB - VISIBILITY
$$




USA.gov is the U.S. government's official web portal to all federal, state and local government web resources and services.